Location: Franzen
(48.6167°N, 15.3833°E)
Time: 16:57:18
(UTC+00:00)

Altair - Pass Details

Date: 03 August 2021
Orbit: 1501 x 1682 km, 47.2° (Epoch: 20 September)

Event Time Altitude Azimuth Distance (km) Brightness Sun altitude
Rises 07:20:15 0° 289° (WNW) 4,645 9.5 35.2°
Reaches altitude 10° 07:24:01 10° 276° (W) 3,655 9.1 35.8°
Maximum altitude 07:30:44 23° 228° (SW) 2,745 8.8 36.9°
Drops below altitude 10° 07:37:29 10° 180° (S) 3,672 9.8 37.9°
Sets 07:41:19 0° 167° (SSE) 4,672 10.4 38.5°
